Lockhart, AL

5:32 AM CST on February 08, 2016 (GMT -0600)
Florala

Weather History for K0J4 - March, 2013

Change the Weather History Date:

Thursday, March 21, 2013

  Actual Average (KCEW) Record (KCEW)
Temperature  
Mean Temperature 50 °F -  
Max Temperature 64 °F 71 °F 86 °F (2015)
Min Temperature 37 °F 47 °F 28 °F (1990)
Degree Days  
Heating Degree Days 14    
Moisture  
Dew Point 29 °F    
Average Humidity 49    
Maximum Humidity 83    
Minimum Humidity 18    
Precipitation  
Precipitation 0.00 in - - ()
Sea Level Pressure  
Sea Level Pressure 30.00 in    
Wind  
Wind Speed 3 mph (NNW)    
Max Wind Speed 9 mph    
Max Gust Speed -    
Visibility 10 miles    
Events      
Averages and records for this station are not official NWS values.
T = Trace of Precipitation, MM = Missing Value Source: NWS Daily Summary

Daily Weather History Graph

Daily Weather History Graph

Search for Another Location

Airport or City:

Trip Planner

Search our weather history database for the weather conditions in past years. The results will help you decide how hot, cold, wet, or windy it might be!

Date:

Astronomy

Mar. 21, 2013 Rise Set
Actual Time 6:47 AM CDT 6:57 PM CDT
Civil Twilight 6:23 AM CDT 7:21 PM CDT
Nautical Twilight 5:55 AM CDT 7:49 PM CDT
Astronomical Twilight 5:26 AM CDT 8:18 PM CDT
Moon 1:45 PM CDT (3/21) 2:49 AM CDT (3/21)
Length of Visible Light 12h 58m
Length of Day
12h 10m
Waxing Gibbous, 69% of the Moon is Illuminated
Mar 21
Waxing Gibbous
Mar 27
Full
Apr 2
Last Quarter
Apr 10
New
Apr 18
First Quarter

Hourly Weather History & Observations

Time (CDT) Temp. Windchill Dew Point Humidity Pressure Visibility Wind Dir Wind Speed Gust Speed Precip Events Conditions
12:58 AM 48.9 °F - 28.9 °F 46% 30.03 in 10.0 mi Variable 5.8 mph - N/A   Clear
1:58 AM 44.1 °F 42.5 °F 33.1 °F 65% 30.02 in 10.0 mi NNW 3.5 mph - N/A   Clear
2:58 AM 42.1 °F - 33.1 °F 70% 30.02 in 10.0 mi Calm Calm - N/A   Clear
3:58 AM 42.1 °F - 32.0 °F 67% 30.01 in 10.0 mi Calm Calm - N/A   Clear
4:58 AM 37.9 °F - 33.1 °F 83% 30.01 in 10.0 mi Calm Calm - N/A   Clear
5:58 AM 41.0 °F - 32.0 °F 70% 30.01 in 10.0 mi Calm Calm - N/A   Clear
6:58 AM 39.9 °F - 33.1 °F 77% 30.01 in 10.0 mi Calm Calm - N/A   Clear
7:58 AM 43.0 °F - 32.0 °F 65% 30.05 in 10.0 mi Calm Calm - N/A   Clear
8:58 AM 46.0 °F 44.8 °F 30.9 °F 56% 30.07 in 10.0 mi Variable 3.5 mph - N/A   Clear
9:58 AM 50.0 °F - 28.0 °F 43% 30.07 in 10.0 mi NNW 5.8 mph - N/A   Clear
10:58 AM 54.0 °F - 21.9 °F 29% 30.06 in 10.0 mi North 9.2 mph - N/A   Clear
11:58 AM 55.9 °F - 21.9 °F 27% 30.04 in 10.0 mi NNW 3.5 mph - N/A   Clear
12:58 PM 57.0 °F - 21.9 °F 26% 30.03 in 10.0 mi North 6.9 mph - N/A   Clear
1:58 PM 57.9 °F - 21.0 °F 24% 30.00 in 10.0 mi Variable 5.8 mph - N/A   Clear
2:58 PM 63.0 °F - 21.0 °F 20% 29.96 in 10.0 mi NNE 8.1 mph - N/A   Clear
3:58 PM 64.0 °F - 19.9 °F 18% 29.94 in 10.0 mi Variable 4.6 mph - N/A   Clear
4:58 PM 63.0 °F - 19.9 °F 19% 29.93 in 10.0 mi WNW 4.6 mph - N/A   Clear
5:58 PM 62.1 °F - 24.1 °F 23% 29.93 in 10.0 mi Calm Calm - N/A   Clear
6:58 PM 55.9 °F - 33.1 °F 42% 29.94 in 10.0 mi Calm Calm - N/A   Clear
7:58 PM 48.9 °F - 39.0 °F 69% 29.95 in 10.0 mi Calm Calm - N/A   Clear
8:58 PM 50.0 °F - 36.0 °F 59% 29.94 in 10.0 mi NNE 4.6 mph - N/A   Partly Cloudy
9:58 PM 51.1 °F - 39.0 °F 63% 29.97 in 10.0 mi Calm Calm - N/A   Mostly Cloudy
10:58 PM 52.0 °F - 30.9 °F 45% 29.96 in 10.0 mi Calm Calm - N/A   Mostly Cloudy
11:58 PM 50.0 °F - 37.0 °F 61% 29.96 in 10.0 mi Calm Calm - N/A   Overcast